sat.trackr.live / text

‹ back to catalog

STARLINK-31769

NORAD 59617 · 2024-080S

PAYLOAD ACTIVE UNKNOWN

§ Identity

Operator
Country
US
Launch date
2024-04-28
Launch site
AFETR
Launch vehicle
Mass (kg)
RCS (m²)

Purposes: comms

External: N2YO · Heavens-Above · Gunter

§ Orbital elements

Epoch: 2026-05-24T21:31:20.902944Z

Period
94.27 min
Inclination
43.0039°
Eccentricity
0.0001425
Mean motion
15.27581756 rev/d
Perigee alt
482.1 km
Apogee alt
484.0 km
Semi-major
6,861.2 km
B*
8.0634e-5
RAAN
327.8662°
Arg perigee
272.8983°
Mean anomaly
87.1706°
Rev number
11,618

§ Raw data

STARLINK-317691 59617U 24080S   26144.89676971  .00001957  00000+0  80634-4 0  99982 59617  43.0039 327.8662 0001425 272.8983  87.1706 15.27581756116187

JSON: /api/v1/satellites/59617 · /tle

For live sub-satellite position, see the globe view (requires WebGL).

§ Visibility from observer

Set your observer location to see the next 7 days of passes ≥ 10°. The values pass through the URL so the page stays shareable.

No JS? Fill the form by hand. The geolocation button needs JavaScript.